Station Historical Data
Daily Summary for March 3, 2017 Units:  English    Metric   Both
« Previous Day
Next Day »
Daily Weekly Monthly Yearly Custom
  High: Low: Average:
Temperature: 57.8 °F 42.4 °F 48.2 °F
Dew Point: 42.7 °F 24.5 °F 35.1 °F
Humidity: 84 % 43 % 61 %
Wind Speed: 15.0 mph 0.0 mph 2.2 mph
Wind Gust: 21.0 mph - -
Wind:- - SE
Pressure: 30.28 in 30.02 in -
Precipitation: 0.00 in    
Historical Graphs
 
 
Tabular Data for March 3, 2017
Time Temperature Dew Point Pressure Wind Wind Speed Wind Gust Humidity Rainfall Rate (Hourly) solar
00:01 45.5 °F 36.7 °F 30.28 in East 1.0 mph 4.0 mph 71 % 0.00 in 0.00 W/m2
00:06 45.5 °F 35.9 °F 30.27 in East 5.0 mph 6.0 mph 69 % 0.00 in 0.00 W/m2
00:11 45.5 °F 36.3 °F 30.27 in East 5.0 mph 12.0 mph 70 % 0.00 in 0.00 W/m2
00:16 45.5 °F 36.3 °F 30.27 in East 4.0 mph 9.0 mph 70 % 0.00 in 0.00 W/m2
00:21 45.5 °F 35.9 °F 30.27 in ESE 5.0 mph 8.0 mph 69 % 0.00 in 0.00 W/m2
00:26 45.4 °F 35.8 °F 30.26 in East 6.0 mph 14.0 mph 69 % 0.00 in 0.00 W/m2
00:31 45.4 °F 35.8 °F 30.26 in Calm   4.0 mph 69 % 0.00 in 0.00 W/m2
00:36 45.4 °F 35.5 °F 30.27 in Calm   2.0 mph 68 % 0.00 in 0.00 W/m2
00:41 45.4 °F 35.1 °F 30.26 in ESE 13.0 mph 13.0 mph 67 % 0.00 in 0.00 W/m2
00:46 45.4 °F 35.5 °F 30.27 in ESE 8.0 mph 15.0 mph 68 % 0.00 in 0.00 W/m2
00:51 45.3 °F 35.0 °F 30.27 in ESE 6.0 mph 6.0 mph 67 % 0.00 in 0.00 W/m2
00:56 45.3 °F 35.0 °F 30.27 in Calm   12.0 mph 67 % 0.00 in 0.00 W/m2
01:01 45.3 °F 35.0 °F 30.26 in ESE 1.0 mph 4.0 mph 67 % 0.00 in 0.00 W/m2
01:06 45.3 °F 35.4 °F 30.26 in Calm   1.0 mph 68 % 0.00 in 0.00 W/m2
01:11 45.3 °F 35.0 °F 30.26 in ESE 1.0 mph 5.0 mph 67 % 0.00 in 0.00 W/m2
01:16 45.1 °F 34.8 °F 30.26 in East 2.0 mph 5.0 mph 67 % 0.00 in 0.00 W/m2
01:21 45.1 °F 34.8 °F 30.26 in Calm   8.0 mph 67 % 0.00 in 0.00 W/m2
01:26 45.0 °F 34.3 °F 30.26 in East 2.0 mph 11.0 mph 66 % 0.00 in 0.00 W/m2
01:31 45.0 °F 34.3 °F 30.25 in ESE 7.0 mph 14.0 mph 66 % 0.00 in 0.00 W/m2
01:33 45.0 °F 34.3 °F 30.25 in ESE 2.0 mph 14.0 mph 66 % 0.00 in 0.00 W/m2
01:37 44.9 °F 34.2 °F 30.25 in Calm   9.0 mph 66 % 0.00 in 0.00 W/m2
01:42 44.9 °F 34.2 °F 30.25 in ESE 2.0 mph 11.0 mph 66 % 0.00 in 0.00 W/m2
01:47 44.8 °F 33.8 °F 30.25 in ESE 8.0 mph 11.0 mph 65 % 0.00 in 0.00 W/m2
01:52 44.8 °F 34.2 °F 30.25 in East 7.0 mph 11.0 mph 66 % 0.00 in 0.00 W/m2
01:57 44.7 °F 33.7 °F 30.25 in ESE 5.0 mph 11.0 mph 65 % 0.00 in 0.00 W/m2
02:02 44.6 °F 33.6 °F 30.24 in Calm   12.0 mph 65 % 0.00 in 0.00 W/m2
02:07 44.6 °F 34.0 °F 30.24 in ESE 6.0 mph 13.0 mph 66 % 0.00 in 0.00 W/m2
02:12 44.5 °F 33.5 °F 30.24 in East 1.0 mph 13.0 mph 65 % 0.00 in 0.00 W/m2
02:17 44.5 °F 33.5 °F 30.24 in Calm   8.0 mph 65 % 0.00 in 0.00 W/m2
02:22 44.4 °F 33.4 °F 30.24 in Calm   13.0 mph 65 % 0.00 in 0.00 W/m2
02:27 44.3 °F 33.3 °F 30.23 in Calm   9.0 mph 65 % 0.00 in 0.00 W/m2
02:32 44.3 °F 33.3 °F 30.23 in East 8.0 mph 8.0 mph 65 % 0.00 in 0.00 W/m2
02:37 44.2 °F 33.2 °F 30.23 in ESE 2.0 mph 12.0 mph 65 % 0.00 in 0.00 W/m2
02:42 44.2 °F 33.2 °F 30.23 in East 7.0 mph 9.0 mph 65 % 0.00 in 0.00 W/m2
02:45 44.2 °F 33.2 °F 30.23 in East 9.0 mph 11.0 mph 65 % 0.00 in 0.00 W/m2
02:50 44.1 °F 32.7 °F 30.23 in Calm   12.0 mph 64 % 0.00 in 0.00 W/m2
02:55 44.0 °F 32.6 °F 30.23 in East 9.0 mph 11.0 mph 64 % 0.00 in 0.00 W/m2
03:00 44.0 °F 32.6 °F 30.23 in Calm   12.0 mph 64 % 0.00 in 0.00 W/m2
03:05 43.9 °F 31.7 °F 30.23 in ESE 11.0 mph 11.0 mph 62 % 0.00 in 0.00 W/m2
03:10 43.9 °F 31.7 °F 30.23 in Calm   9.0 mph 62 % 0.00 in 0.00 W/m2
03:15 43.9 °F 31.3 °F 30.23 in ESE 6.0 mph 11.0 mph 61 % 0.00 in 0.00 W/m2
03:20 43.9 °F 31.3 °F 30.23 in Calm   12.0 mph 61 % 0.00 in 0.00 W/m2
03:25 43.9 °F 31.3 °F 30.23 in Calm   12.0 mph 61 % 0.00 in 0.00 W/m2
03:30 43.8 °F 30.8 °F 30.23 in Calm   2.0 mph 60 % 0.00 in 0.00 W/m2
03:35 43.8 °F 31.2 °F 30.22 in ESE 5.0 mph 5.0 mph 61 % 0.00 in 0.00 W/m2
03:40 43.8 °F 31.6 °F 30.22 in ESE 1.0 mph 11.0 mph 62 % 0.00 in 0.00 W/m2
03:45 43.7 °F 30.7 °F 30.22 in East 7.0 mph 13.0 mph 60 % 0.00 in 0.00 W/m2
03:50 43.6 °F 31.0 °F 30.22 in ESE 7.0 mph 12.0 mph 61 % 0.00 in 0.00 W/m2
03:55 43.6 °F 30.6 °F 30.22 in ESE 4.0 mph 9.0 mph 60 % 0.00 in 0.00 W/m2
04:00 43.5 °F 30.1 °F 30.21 in Calm   8.0 mph 59 % 0.00 in 0.00 W/m2
04:05 43.4 °F 30.5 °F 30.21 in Calm   12.0 mph 60 % 0.00 in 0.00 W/m2
04:10 43.3 °F 30.0 °F 30.22 in Calm   15.0 mph 59 % 0.00 in 0.00 W/m2
04:15 43.3 °F 30.0 °F 30.21 in Calm   12.0 mph 59 % 0.00 in 0.00 W/m2
04:20 43.2 °F 29.9 °F 30.21 in ESE 1.0 mph 12.0 mph 59 % 0.00 in 0.00 W/m2
04:25 43.1 °F 29.8 °F 30.21 in East 8.0 mph 14.0 mph 59 % 0.00 in 0.00 W/m2
04:30 43.1 °F 29.3 °F 30.21 in East 6.0 mph 14.0 mph 58 % 0.00 in 0.00 W/m2
04:35 43.0 °F 28.8 °F 30.21 in East 11.0 mph 14.0 mph 57 % 0.00 in 0.00 W/m2
04:40 43.0 °F 28.8 °F 30.21 in SE 9.0 mph 21.0 mph 57 % 0.00 in 0.00 W/m2
04:45 42.9 °F 28.7 °F 30.21 in ESE 6.0 mph 14.0 mph 57 % 0.00 in 0.00 W/m2
04:50 42.9 °F 29.2 °F 30.21 in ESE 8.0 mph 15.0 mph 58 % 0.00 in 0.00 W/m2
04:55 42.9 °F 28.7 °F 30.21 in ESE 2.0 mph 14.0 mph 57 % 0.00 in 0.00 W/m2
05:00 42.9 °F 28.7 °F 30.21 in ESE 4.0 mph 13.0 mph 57 % 0.00 in 0.00 W/m2
05:05 42.9 °F 29.2 °F 30.21 in ESE 8.0 mph 13.0 mph 58 % 0.00 in 0.00 W/m2
05:10 42.8 °F 28.6 °F 30.21 in East 9.0 mph 14.0 mph 57 % 0.00 in 0.00 W/m2
05:15 42.7 °F 28.5 °F 30.21 in ESE 9.0 mph 16.0 mph 57 % 0.00 in 0.00 W/m2
05:20 42.6 °F 28.5 °F 30.20 in ESE 7.0 mph 15.0 mph 57 % 0.00 in 0.00 W/m2
05:25 42.6 °F 27.6 °F 30.20 in ESE 7.0 mph 15.0 mph 55 % 0.00 in 0.00 W/m2
05:30 42.6 °F 27.6 °F 30.20 in ESE 11.0 mph 13.0 mph 55 % 0.00 in 0.00 W/m2
05:35 42.6 °F 27.6 °F 30.20 in East 7.0 mph 18.0 mph 55 % 0.00 in 0.00 W/m2
05:40 42.6 °F 28.0 °F 30.20 in ESE 8.0 mph 16.0 mph 56 % 0.00 in 0.00 W/m2
05:45 42.5 °F 27.9 °F 30.20 in East 8.0 mph 16.0 mph 56 % 0.00 in 0.00 W/m2
05:50 42.5 °F 27.0 °F 30.20 in ESE 6.0 mph 13.0 mph 54 % 0.00 in 0.00 W/m2
05:55 42.5 °F 26.6 °F 30.20 in SE 5.0 mph 14.0 mph 53 % 0.00 in 0.00 W/m2
06:00 42.5 °F 26.6 °F 30.20 in East 9.0 mph 12.0 mph 53 % 0.00 in 0.00 W/m2
06:05 42.5 °F 26.1 °F 30.19 in East 5.0 mph 15.0 mph 52 % 0.00 in 0.00 W/m2
06:10 42.5 °F 26.1 °F 30.19 in East 15.0 mph 15.0 mph 52 % 0.00 in 0.00 W/m2
06:15 42.5 °F 27.0 °F 30.19 in East 11.0 mph 13.0 mph 54 % 0.00 in 0.00 W/m2
06:20 42.5 °F 26.1 °F 30.19 in East 11.0 mph 14.0 mph 52 % 0.00 in 0.00 W/m2
06:25 42.4 °F 26.0 °F 30.19 in East 1.0 mph 18.0 mph 52 % 0.00 in 5.00 W/m2
06:30 42.4 °F 26.0 °F 30.19 in ESE 5.0 mph 14.0 mph 52 % 0.00 in 5.00 W/m2
06:35 42.4 °F 26.0 °F 30.19 in Calm   12.0 mph 52 % 0.00 in 7.00 W/m2
06:40 42.5 °F 26.1 °F 30.19 in East 7.0 mph 16.0 mph 52 % 0.00 in 11.00 W/m2
06:45 42.5 °F 26.1 °F 30.18 in East 4.0 mph 14.0 mph 52 % 0.00 in 16.00 W/m2
06:50 42.5 °F 26.1 °F 30.18 in Calm   15.0 mph 52 % 0.00 in 21.00 W/m2
06:55 42.4 °F 26.5 °F 30.18 in East 14.0 mph 15.0 mph 53 % 0.00 in 26.00 W/m2
07:00 42.4 °F 25.1 °F 30.18 in ESE 6.0 mph 16.0 mph 50 % 0.00 in 33.00 W/m2
07:05 42.5 °F 26.6 °F 30.18 in ENE 12.0 mph 18.0 mph 53 % 0.00 in 40.00 W/m2
07:10 42.6 °F 25.8 °F 30.18 in East 7.0 mph 14.0 mph 51 % 0.00 in 47.00 W/m2
07:15 42.6 °F 26.2 °F 30.17 in East 7.0 mph 14.0 mph 52 % 0.00 in 54.00 W/m2
07:20 42.7 °F 25.9 °F 30.17 in ESE 4.0 mph 14.0 mph 51 % 0.00 in 62.00 W/m2
07:25 42.7 °F 25.4 °F 30.17 in East 6.0 mph 16.0 mph 50 % 0.00 in 79.00 W/m2
07:30 42.8 °F 24.5 °F 30.17 in ESE 4.0 mph 17.0 mph 48 % 0.00 in 95.00 W/m2
07:35 42.9 °F 25.1 °F 30.17 in Calm   13.0 mph 49 % 0.00 in 100.00 W/m2
07:40 43.1 °F 26.2 °F 30.17 in ESE 5.0 mph 12.0 mph 51 % 0.00 in 142.00 W/m2
07:45 43.2 °F 25.8 °F 30.17 in Calm   13.0 mph 50 % 0.00 in 130.00 W/m2
07:50 43.3 °F 26.4 °F 30.17 in Calm   14.0 mph 51 % 0.00 in 174.00 W/m2
07:55 43.4 °F 26.0 °F 30.17 in Calm   16.0 mph 50 % 0.00 in 132.00 W/m2
08:00 43.6 °F 27.1 °F 30.17 in Calm   12.0 mph 52 % 0.00 in 149.00 W/m2
08:05 43.7 °F 26.8 °F 30.17 in East 5.0 mph 12.0 mph 51 % 0.00 in 134.00 W/m2
08:10 43.9 °F 27.0 °F 30.17 in East 2.0 mph 12.0 mph 51 % 0.00 in 141.00 W/m2
08:15 44.1 °F 28.1 °F 30.17 in Calm   11.0 mph 53 % 0.00 in 139.00 W/m2
08:20 44.2 °F 27.2 °F 30.17 in Calm   9.0 mph 51 % 0.00 in 179.00 W/m2
08:25 44.4 °F 26.5 °F 30.17 in Calm   6.0 mph 49 % 0.00 in 244.00 W/m2
08:31 44.5 °F 28.0 °F 30.17 in ESE 1.0 mph 4.0 mph 52 % 0.00 in 285.00 W/m2
08:36 44.7 °F 28.6 °F 30.17 in East 1.0 mph 11.0 mph 53 % 0.00 in 278.00 W/m2
08:41 44.8 °F 28.3 °F 30.17 in Calm   5.0 mph 52 % 0.00 in 352.00 W/m2
08:46 45.0 °F 28.5 °F 30.17 in ESE 2.0 mph 5.0 mph 52 % 0.00 in 334.00 W/m2
08:51 45.3 °F 30.5 °F 30.17 in ESE 1.0 mph 5.0 mph 56 % 0.00 in 290.00 W/m2
08:56 45.5 °F 29.4 °F 30.17 in Calm   7.0 mph 53 % 0.00 in 276.00 W/m2
09:01 45.8 °F 29.2 °F 30.17 in Calm   2.0 mph 52 % 0.00 in 283.00 W/m2
09:06 46.0 °F 28.9 °F 30.17 in ESE 1.0 mph 6.0 mph 51 % 0.00 in 336.00 W/m2
09:11 46.4 °F 28.8 °F 30.17 in Calm   9.0 mph 50 % 0.00 in 338.00 W/m2
09:16 46.7 °F 29.1 °F 30.17 in Calm   7.0 mph 50 % 0.00 in 459.00 W/m2
09:21 47.0 °F 28.9 °F 30.17 in ESE 5.0 mph 7.0 mph 49 % 0.00 in 478.00 W/m2
09:26 47.4 °F 29.2 °F 30.16 in Calm   8.0 mph 49 % 0.00 in 524.00 W/m2
09:31 47.8 °F 29.1 °F 30.16 in Calm   12.0 mph 48 % 0.00 in 541.00 W/m2
09:36 48.3 °F 28.5 °F 30.16 in Calm   8.0 mph 46 % 0.00 in 371.00 W/m2
09:41 48.8 °F 29.0 °F 30.16 in SE 2.0 mph 5.0 mph 46 % 0.00 in 353.00 W/m2
09:46 49.2 °F 28.8 °F 30.16 in ESE 1.0 mph 7.0 mph 45 % 0.00 in 309.00 W/m2
09:51 49.7 °F 28.7 °F 30.16 in SE 5.0 mph 6.0 mph 44 % 0.00 in 288.00 W/m2
09:56 50.1 °F 28.5 °F 30.16 in Calm   6.0 mph 43 % 0.00 in 294.00 W/m2
10:01 50.4 °F 29.9 °F 30.16 in Calm   1.0 mph 45 % 0.00 in 281.00 W/m2
10:06 50.6 °F 30.1 °F 30.16 in Calm   5.0 mph 45 % 0.00 in 272.00 W/m2
10:11 50.9 °F 30.3 °F 30.16 in Calm   6.0 mph 45 % 0.00 in 250.00 W/m2
10:16 51.1 °F 33.1 °F 30.16 in Calm     50 % 0.00 in 334.00 W/m2
10:21 51.2 °F 33.7 °F 30.16 in Calm     51 % 0.00 in 424.00 W/m2
10:26 51.3 °F 34.3 °F 30.16 in Calm     52 % 0.00 in 519.00 W/m2
10:31 51.4 °F 33.4 °F 30.16 in Calm   4.0 mph 50 % 0.00 in 585.00 W/m2
10:36 51.5 °F 30.9 °F 30.16 in Calm   4.0 mph 45 % 0.00 in 708.00 W/m2
10:41 51.8 °F 30.6 °F 30.16 in Calm   2.0 mph 44 % 0.00 in 621.00 W/m2
10:46 52.4 °F 32.2 °F 30.16 in South 5.0 mph 6.0 mph 46 % 0.00 in 696.00 W/m2
10:51 52.9 °F 32.2 °F 30.16 in South 2.0 mph 6.0 mph 45 % 0.00 in 631.00 W/m2
10:56 53.3 °F 33.1 °F 30.15 in SE 4.0 mph 8.0 mph 46 % 0.00 in 513.00 W/m2
11:01 53.8 °F 33.0 °F 30.15 in Calm   6.0 mph 45 % 0.00 in 510.00 W/m2
11:06 54.2 °F 33.3 °F 30.15 in Calm   5.0 mph 45 % 0.00 in 494.00 W/m2
11:11 54.5 °F 34.2 °F 30.15 in Calm   2.0 mph 46 % 0.00 in 439.00 W/m2
11:16 54.8 °F 34.4 °F 30.15 in Calm     46 % 0.00 in 438.00 W/m2
11:21 55.1 °F 34.7 °F 30.15 in South 1.0 mph 6.0 mph 46 % 0.00 in 455.00 W/m2
11:26 55.3 °F 34.9 °F 30.15 in Calm   4.0 mph 46 % 0.00 in 482.00 W/m2
11:31 55.4 °F 34.4 °F 30.15 in Calm     45 % 0.00 in 483.00 W/m2
11:36 55.6 °F 35.2 °F 30.14 in Calm   2.0 mph 46 % 0.00 in 462.00 W/m2
11:41 55.8 °F 36.4 °F 30.14 in Calm   6.0 mph 48 % 0.00 in 461.00 W/m2
11:46 55.9 °F 34.9 °F 30.14 in SSW 2.0 mph 4.0 mph 45 % 0.00 in 427.00 W/m2
11:51 56.0 °F 35.5 °F 30.14 in SSW 3.0 mph 5.0 mph 46 % 0.00 in 524.00 W/m2
11:56 56.2 °F 36.8 °F 30.14 in SW 3.0 mph 3.0 mph 48 % 0.00 in 594.00 W/m2
12:01 56.3 °F 35.8 °F 30.13 in Calm     46 % 0.00 in 485.00 W/m2
12:06 56.4 °F 36.4 °F 30.13 in SSE 2.0 mph 4.0 mph 47 % 0.00 in 471.00 W/m2
12:11 56.6 °F 36.6 °F 30.13 in Calm     47 % 0.00 in 464.00 W/m2
12:16 56.6 °F 36.6 °F 30.13 in South 2.0 mph 5.0 mph 47 % 0.00 in 462.00 W/m2
12:21 56.7 °F 37.2 °F 30.13 in SSW 2.0 mph 3.0 mph 48 % 0.00 in 366.00 W/m2
12:26 56.7 °F 37.2 °F 30.13 in SSW 1.0 mph 2.0 mph 48 % 0.00 in 527.00 W/m2
12:31 56.8 °F 38.4 °F 30.12 in Calm     50 % 0.00 in 512.00 W/m2
12:36 56.8 °F 37.9 °F 30.12 in SSW 5.0 mph 6.0 mph 49 % 0.00 in 508.00 W/m2
12:41 56.8 °F 37.9 °F 30.12 in Calm     49 % 0.00 in 489.00 W/m2
12:46 56.8 °F 37.9 °F 30.12 in Calm     49 % 0.00 in 448.00 W/m2
12:51 56.9 °F 38.0 °F 30.11 in Calm   4.0 mph 49 % 0.00 in 529.00 W/m2
12:56 57.0 °F 38.0 °F 30.11 in Calm     49 % 0.00 in 522.00 W/m2
13:01 57.1 °F 38.7 °F 30.11 in SW 2.0 mph 5.0 mph 50 % 0.00 in 559.00 W/m2
13:06 57.2 °F 38.2 °F 30.11 in WSW 5.0 mph 6.0 mph 49 % 0.00 in 541.00 W/m2
13:11 57.3 °F 38.8 °F 30.11 in WSW 3.0 mph 6.0 mph 50 % 0.00 in 504.00 W/m2
13:16 57.2 °F 38.2 °F 30.11 in SW 4.0 mph 4.0 mph 49 % 0.00 in 564.00 W/m2
13:21 57.3 °F 38.8 °F 30.10 in Calm   6.0 mph 50 % 0.00 in 520.00 W/m2
13:26 57.3 °F 37.8 °F 30.10 in Calm     48 % 0.00 in 547.00 W/m2
13:31 57.5 °F 38.0 °F 30.10 in SSE 8.0 mph 8.0 mph 48 % 0.00 in 524.00 W/m2
13:36 57.6 °F 38.6 °F 30.09 in SSW 2.0 mph 6.0 mph 49 % 0.00 in 464.00 W/m2
13:41 57.7 °F 38.2 °F 30.09 in Calm     48 % 0.00 in 415.00 W/m2
13:46 57.8 °F 37.2 °F 30.09 in South 9.0 mph 9.0 mph 46 % 0.00 in 357.00 W/m2
13:51 57.8 °F 37.7 °F 30.09 in Calm   5.0 mph 47 % 0.00 in 339.00 W/m2
13:56 57.8 °F 37.7 °F 30.09 in Calm     47 % 0.00 in 385.00 W/m2
14:01 57.8 °F 37.2 °F 30.09 in Calm     46 % 0.00 in 376.00 W/m2
14:06 57.7 °F 36.5 °F 30.09 in SSW 3.0 mph 4.0 mph 45 % 0.00 in 366.00 W/m2
14:11 57.7 °F 37.6 °F 30.08 in Calm     47 % 0.00 in 313.00 W/m2
14:16 57.7 °F 38.2 °F 30.08 in Calm   4.0 mph 48 % 0.00 in 308.00 W/m2
14:21 57.6 °F 38.1 °F 30.08 in SW 1.0 mph 5.0 mph 48 % 0.00 in 332.00 W/m2
14:26 57.5 °F 38.5 °F 30.08 in WSW 2.0 mph 6.0 mph 49 % 0.00 in 320.00 W/m2
14:31 57.4 °F 37.9 °F 30.09 in Calm     48 % 0.00 in 294.00 W/m2
14:36 57.3 °F 38.3 °F 30.08 in Calm     49 % 0.00 in 279.00 W/m2
14:41 57.2 °F 39.2 °F 30.08 in Calm   1.0 mph 51 % 0.00 in 265.00 W/m2
14:46 57.1 °F 39.2 °F 30.08 in Calm     51 % 0.00 in 255.00 W/m2
14:51 57.1 °F 39.2 °F 30.08 in Calm     51 % 0.00 in 294.00 W/m2
14:56 56.9 °F 39.5 °F 30.09 in WSW 4.0 mph 5.0 mph 52 % 0.00 in 325.00 W/m2
15:01 56.8 °F 39.4 °F 30.09 in Calm     52 % 0.00 in 260.00 W/m2
15:07 56.7 °F 39.3 °F 30.09 in WSW 5.0 mph 5.0 mph 52 % 0.00 in 232.00 W/m2
15:12 56.6 °F 39.7 °F 30.08 in Calm     53 % 0.00 in 227.00 W/m2
15:17 56.5 °F 39.6 °F 30.08 in Calm     53 % 0.00 in 279.00 W/m2
15:22 56.3 °F 40.4 °F 30.08 in Calm   1.0 mph 55 % 0.00 in 373.00 W/m2
15:27 56.2 °F 40.3 °F 30.08 in Calm     55 % 0.00 in 304.00 W/m2
15:32 56.2 °F 40.3 °F 30.08 in SW 2.0 mph 2.0 mph 55 % 0.00 in 272.00 W/m2
15:37 56.1 °F 40.2 °F 30.08 in Calm   2.0 mph 55 % 0.00 in 355.00 W/m2
15:42 56.0 °F 40.5 °F 30.08 in Calm     56 % 0.00 in 355.00 W/m2
15:47 56.0 °F 40.5 °F 30.08 in Calm     56 % 0.00 in 230.00 W/m2
15:52 56.0 °F 41.0 °F 30.08 in Calm     57 % 0.00 in 255.00 W/m2
15:57 55.9 °F 40.0 °F 30.07 in Calm     55 % 0.00 in 262.00 W/m2
16:02 55.8 °F 39.9 °F 30.07 in SSW 5.0 mph 6.0 mph 55 % 0.00 in 218.00 W/m2
16:07 55.7 °F 38.4 °F 30.07 in South 2.0 mph 7.0 mph 52 % 0.00 in 211.00 W/m2
16:12 55.6 °F 37.8 °F 30.07 in Calm     51 % 0.00 in 178.00 W/m2
16:17 55.6 °F 39.2 °F 30.07 in Calm     54 % 0.00 in 153.00 W/m2
16:22 55.5 °F 40.1 °F 30.06 in Calm     56 % 0.00 in 127.00 W/m2
16:27 55.4 °F 40.4 °F 30.06 in Calm   5.0 mph 57 % 0.00 in 105.00 W/m2
16:32 55.2 °F 40.2 °F 30.06 in Calm     57 % 0.00 in 100.00 W/m2
16:37 55.1 °F 41.9 °F 30.05 in Calm     61 % 0.00 in 84.00 W/m2
16:42 54.9 °F 41.3 °F 30.05 in Calm     60 % 0.00 in 84.00 W/m2
16:47 54.8 °F 41.6 °F 30.04 in Calm     61 % 0.00 in 83.00 W/m2
16:52 54.6 °F 42.3 °F 30.04 in Calm     63 % 0.00 in 83.00 W/m2
16:57 54.5 °F 42.2 °F 30.04 in Calm     63 % 0.00 in 83.00 W/m2
17:02 54.4 °F 42.5 °F 30.04 in Calm     64 % 0.00 in 74.00 W/m2
17:07 54.2 °F 42.7 °F 30.04 in Calm     65 % 0.00 in 62.00 W/m2
17:12 54.0 °F 42.5 °F 30.03 in South 2.0 mph 5.0 mph 65 % 0.00 in 46.00 W/m2
17:17 53.9 °F 42.4 °F 30.03 in South 5.0 mph 7.0 mph 65 % 0.00 in 33.00 W/m2
17:22 53.7 °F 42.6 °F 30.04 in Calm     66 % 0.00 in 30.00 W/m2
17:27 53.4 °F 42.7 °F 30.04 in Calm     67 % 0.00 in 28.00 W/m2
17:32 53.2 °F 42.2 °F 30.03 in Calm     66 % 0.00 in 26.00 W/m2
17:37 52.9 °F 41.9 °F 30.03 in Calm   5.0 mph 66 % 0.00 in 23.00 W/m2
17:42 52.7 °F 42.5 °F 30.03 in Calm     68 % 0.00 in 18.00 W/m2
17:47 52.3 °F 42.5 °F 30.03 in Calm     69 % 0.00 in 11.00 W/m2
17:52 52.0 °F 42.2 °F 30.03 in Calm     69 % 0.00 in 5.00 W/m2
17:57 51.7 °F 41.9 °F 30.03 in Calm     69 % 0.00 in 0.00 W/m2
18:02 51.5 °F 41.7 °F 30.04 in Calm     69 % 0.00 in 0.00 W/m2
18:03 51.5 °F 41.7 °F 30.04 in Calm     69 % 0.00 in 0.00 W/m2
18:08 51.2 °F 41.8 °F 30.04 in Calm     70 % 0.00 in 0.00 W/m2
18:13 51.0 °F 41.9 °F 30.04 in Calm     71 % 0.00 in 0.00 W/m2
18:18 50.6 °F 41.9 °F 30.05 in Calm     72 % 0.00 in 0.00 W/m2
18:23 50.3 °F 42.0 °F 30.04 in Calm     73 % 0.00 in 0.00 W/m2
18:28 50.0 °F 42.0 °F 30.04 in Calm     74 % 0.00 in 0.00 W/m2
18:33 49.5 °F 41.6 °F 30.04 in Calm     74 % 0.00 in 0.00 W/m2
18:38 49.0 °F 41.8 °F 30.03 in Calm     76 % 0.00 in 0.00 W/m2
18:43 48.7 °F 41.5 °F 30.03 in Calm     76 % 0.00 in 0.00 W/m2
18:48 48.5 °F 41.6 °F 30.03 in Calm     77 % 0.00 in 0.00 W/m2
18:53 48.3 °F 41.4 °F 30.03 in Calm     77 % 0.00 in 0.00 W/m2
18:58 48.0 °F 41.2 °F 30.03 in Calm     77 % 0.00 in 0.00 W/m2
19:03 47.6 °F 41.1 °F 30.03 in Calm     78 % 0.00 in 0.00 W/m2
19:08 47.3 °F 40.5 °F 30.03 in Calm     77 % 0.00 in 0.00 W/m2
19:13 47.2 °F 40.7 °F 30.03 in Calm     78 % 0.00 in 0.00 W/m2
19:18 47.0 °F 40.5 °F 30.04 in Calm     78 % 0.00 in 0.00 W/m2
19:23 46.8 °F 40.3 °F 30.04 in Calm     78 % 0.00 in 0.00 W/m2
19:28 46.4 °F 40.2 °F 30.03 in Calm     79 % 0.00 in 0.00 W/m2
19:33 46.0 °F 39.9 °F 30.03 in Calm     79 % 0.00 in 0.00 W/m2
19:38 45.8 °F 40.0 °F 30.03 in Calm     80 % 0.00 in 0.00 W/m2
19:43 45.4 °F 39.6 °F 30.04 in Calm     80 % 0.00 in 0.00 W/m2
19:48 45.2 °F 39.7 °F 30.04 in Calm     81 % 0.00 in 0.00 W/m2
19:53 45.0 °F 39.5 °F 30.03 in Calm     81 % 0.00 in 0.00 W/m2
19:58 44.8 °F 39.3 °F 30.03 in Calm     81 % 0.00 in 0.00 W/m2
20:03 44.7 °F 39.5 °F 30.03 in Calm     82 % 0.00 in 0.00 W/m2
20:08 44.6 °F 39.5 °F 30.04 in Calm     82 % 0.00 in 0.00 W/m2
20:13 44.5 °F 39.4 °F 30.04 in Calm     82 % 0.00 in 0.00 W/m2
20:18 44.4 °F 39.6 °F 30.04 in Calm     83 % 0.00 in 0.00 W/m2
20:23 44.3 °F 39.5 °F 30.04 in Calm     83 % 0.00 in 0.00 W/m2
20:28 44.3 °F 39.5 °F 30.04 in Calm     83 % 0.00 in 0.00 W/m2
20:33 44.3 °F 39.5 °F 30.04 in Calm     83 % 0.00 in 0.00 W/m2
20:38 44.3 °F 39.5 °F 30.04 in Calm     83 % 0.00 in 0.00 W/m2
20:43 44.2 °F 39.4 °F 30.05 in Calm     83 % 0.00 in 0.00 W/m2
20:48 44.2 °F 39.4 °F 30.05 in Calm   2.0 mph 83 % 0.00 in 0.00 W/m2
20:53 44.2 °F 39.4 °F 30.04 in Calm     83 % 0.00 in 0.00 W/m2
20:58 44.2 °F 39.4 °F 30.05 in Calm     83 % 0.00 in 0.00 W/m2
21:03 44.1 °F 39.0 °F 30.05 in Calm     82 % 0.00 in 0.00 W/m2
21:08 44.1 °F 39.3 °F 30.04 in SSW 2.0 mph 3.0 mph 83 % 0.00 in 0.00 W/m2
21:13 44.2 °F 39.4 °F 30.05 in South 1.0 mph 4.0 mph 83 % 0.00 in 0.00 W/m2
21:18 44.1 °F 39.3 °F 30.04 in SSE 4.0 mph 7.0 mph 83 % 0.00 in 0.00 W/m2
21:23 44.2 °F 39.4 °F 30.04 in Calm   8.0 mph 83 % 0.00 in 0.00 W/m2
21:28 44.2 °F 39.4 °F 30.04 in Calm   11.0 mph 83 % 0.00 in 0.00 W/m2
21:33 44.2 °F 39.4 °F 30.04 in ESE 11.0 mph 11.0 mph 83 % 0.00 in 0.00 W/m2
21:38 44.2 °F 39.7 °F 30.04 in Calm   9.0 mph 84 % 0.00 in 0.00 W/m2
21:43 44.1 °F 39.6 °F 30.04 in Calm   9.0 mph 84 % 0.00 in 0.00 W/m2
21:48 44.1 °F 39.6 °F 30.04 in ESE 2.0 mph 8.0 mph 84 % 0.00 in 0.00 W/m2
21:53 44.1 °F 39.6 °F 30.04 in Calm   12.0 mph 84 % 0.00 in 0.00 W/m2
21:58 44.1 °F 39.6 °F 30.04 in ESE 1.0 mph 9.0 mph 84 % 0.00 in 0.00 W/m2
22:03 44.1 °F 39.3 °F 30.04 in Calm   8.0 mph 83 % 0.00 in 0.00 W/m2
22:08 44.1 °F 39.3 °F 30.04 in ESE 1.0 mph 7.0 mph 83 % 0.00 in 0.00 W/m2
22:13 44.1 °F 39.0 °F 30.04 in ESE 4.0 mph 8.0 mph 82 % 0.00 in 0.00 W/m2
22:18 44.2 °F 39.1 °F 30.04 in ESE 6.0 mph 11.0 mph 82 % 0.00 in 0.00 W/m2
22:23 44.2 °F 39.1 °F 30.04 in Calm   9.0 mph 82 % 0.00 in 0.00 W/m2
22:28 44.2 °F 38.8 °F 30.04 in Calm   9.0 mph 81 % 0.00 in 0.00 W/m2
22:33 44.2 °F 38.8 °F 30.03 in Calm   9.0 mph 81 % 0.00 in 0.00 W/m2
22:38 44.3 °F 38.8 °F 30.03 in ESE 6.0 mph 12.0 mph 81 % 0.00 in 0.00 W/m2
22:43 44.3 °F 38.5 °F 30.03 in SE 7.0 mph 12.0 mph 80 % 0.00 in 0.00 W/m2
22:49 44.3 °F 38.5 °F 30.03 in ESE 2.0 mph 13.0 mph 80 % 0.00 in 0.00 W/m2
22:54 44.3 °F 38.2 °F 30.02 in ESE 4.0 mph 14.0 mph 79 % 0.00 in 0.00 W/m2
22:59 44.3 °F 38.2 °F 30.02 in Calm   11.0 mph 79 % 0.00 in 0.00 W/m2
23:04 44.3 °F 38.5 °F 30.02 in ESE 4.0 mph 14.0 mph 80 % 0.00 in 0.00 W/m2
23:09 44.3 °F 38.2 °F 30.02 in Calm   15.0 mph 79 % 0.00 in 0.00 W/m2
23:14 44.3 °F 38.2 °F 30.02 in SE 2.0 mph 11.0 mph 79 % 0.00 in 0.00 W/m2
23:19 44.3 °F 37.9 °F 30.02 in ESE 5.0 mph 8.0 mph 78 % 0.00 in 0.00 W/m2
23:24 44.3 °F 37.9 °F 30.02 in SE 6.0 mph 8.0 mph 78 % 0.00 in 0.00 W/m2
23:29 44.3 °F 37.9 °F 30.02 in Calm   7.0 mph 78 % 0.00 in 0.00 W/m2
23:34 44.3 °F 37.9 °F 30.02 in ESE 1.0 mph 8.0 mph 78 % 0.00 in 0.00 W/m2
23:39 44.3 °F 37.9 °F 30.02 in Calm   8.0 mph 78 % 0.00 in 0.00 W/m2
23:44 44.3 °F 38.2 °F 30.02 in SE 5.0 mph 13.0 mph 79 % 0.00 in 0.00 W/m2
23:49 44.2 °F 37.8 °F 30.02 in Calm   8.0 mph 78 % 0.00 in 0.00 W/m2
23:54 44.2 °F 37.8 °F 30.02 in Calm   6.0 mph 78 % 0.00 in 0.00 W/m2
23:59 44.1 °F 37.7 °F 30.02 in SE 4.0 mph 11.0 mph 78 % 0.00 in 0.00 W/m2
Juneau County Weather
Compliments of Weather Underground - 4.5 mb
 WU-history PHP script courtesy of   Juneau County Weather.
powered by Cumulus v1.9.3 (1059)
Ambient Weather VWS v14.00
Top Contact Website Map Copyright © 2007 - 2018 Foresthillweather.com Never base important decisions on this or any weather information obtained from the Internet